SARAL

Last updated on Fri Oct 11 2024 00:02:25 GMT+0000 (Coordinated Universal Time)

1 39086U 13009A 24284.54119408 .00000749 00000+0 29249-3 0 9999 2 39086 98.5521 108.0877 0001226 337.8737 22.2393 14.32536661607593
UTC large
Height (km)
Speed (km/s)
/
Latitude / Longitude
Inclination (degrees)
Orbital Period (minutes)
Azimuth
Elevation
Range (km)
Doppler Factor

Next 0 passes for location: London (51.5072 / 0.1276)

Sorry there are no passes over London.